sat.trackr.live / text

‹ back to catalog

STARLINK-3318

NORAD 50837 · 2022-001AL

PAYLOAD ACTIVE UNKNOWN

§ Identity

Operator
Country
US
Launch date
2022-01-06
Launch site
AFETR
Launch vehicle
Mass (kg)
RCS (m²)

Purposes: comms

External: N2YO · Heavens-Above · Gunter

§ Orbital elements

Epoch: 2026-05-24T20:12:29.338272Z

Period
95.44 min
Inclination
53.2134°
Eccentricity
0.0000909
Mean motion
15.08838789 rev/d
Perigee alt
539.1 km
Apogee alt
540.4 km
Semi-major
6,917.9 km
B*
3.1148e-5
RAAN
187.2566°
Arg perigee
83.6318°
Mean anomaly
276.4778°
Rev number
24,190

§ Raw data

STARLINK-33181 50837U 22001AL  26144.84200623  .00000208  00000+0  31148-4 0  99902 50837  53.2134 187.2566 0000909  83.6318 276.4778 15.08838789241909

JSON: /api/v1/satellites/50837 · /tle

For live sub-satellite position, see the globe view (requires WebGL).

§ Visibility from observer

Set your observer location to see the next 7 days of passes ≥ 10°. The values pass through the URL so the page stays shareable.

No JS? Fill the form by hand. The geolocation button needs JavaScript.